User: anonymous   Login
Location: Bermeries
(50.2863°N, 3.7551°E)
Time: 13:22:11
(UTC+00:00)
Language:

Cosmos 2333 Rocket - Orbit

View from above orbital plane
View from above orbital plane
View from above satellite
View from above satellite

Ground track
Ground track

The orbit data is extracted from the following two-line orbital elements,

1 24298U 96051B   24202.86367251 -.00000141  00000-0 -49890-4 0  9996
2 24298  70.8011 357.6311 0017962 294.3207  65.6037 14.12464681437370
Epoch (UTC): 20 July 2024 20:43:41
Eccentricity: 0.0017962
inclination: 70.8011°
perigee height: 838 km
apogee height: 864 km
right ascension of ascending node: 357.6311°
argument of perigee: 294.3207°
revolutions per day: 14.12464681
mean anomaly at epoch: 65.6037°
orbit number at epoch: 43737

The dashed part of the orbit path shows where the satellite is in the earth's shadow,  

DLR